sat.trackr.live / text

‹ back to catalog

COSMOS 2468 (RODNIK-S 3)

NORAD 37154 · 2010-043C

PAYLOAD ACTIVE UNKNOWN

§ Identity

Operator
Country
CIS
Launch date
2010-09-08
Launch site
PLMSC
Launch vehicle
Mass (kg)
RCS (m²)
1.45

External: N2YO · Heavens-Above · Gunter

§ Orbital elements

Epoch: 2026-09-09T02:03:15.236064Z

Period
115.78 min
Inclination
82.4655°
Eccentricity
0.0015602
Mean motion
12.43749515 rev/d
Perigee alt
1,478.5 km
Apogee alt
1,503.0 km
Semi-major
7,868.9 km
B*
7.0240e-5
RAAN
9.6924°
Arg perigee
124.5599°
Mean anomaly
47.8553°
Rev number
72,630

§ Raw data

COSMOS 2468 (RODNIK-S 3)1 37154U 10043C   26252.08559301  .00000020  00000+0  70240-4 0  99942 37154  82.4655   9.6924 0015602 124.5599  47.8553 12.43749515726302

JSON: /api/v1/satellites/37154 · /tle

For live sub-satellite position, see the globe view (requires WebGL).

§ Visibility from observer

Set your observer location to see the next 7 days of passes ≥ 10°. The values pass through the URL so the page stays shareable.

No JS? Fill the form by hand. The geolocation button needs JavaScript.